[[{"header":{"parameterUnit":"m.s-1","parameterCategory":1,"la1":30.2991,"la2":30.254,"lo1":-89.0895,"lo2":-89.0444,"dy":0.0017,"dx":0.0017,"nx":28,"ny":28,"refTime":"2025-05-22T09:00:00:Z","depth":0,"parameterNumber":2,"parameterNumberName":"U-component_of_WINDS"},"data":[0,0,0,0,0,0,0,0,0,0,0,0,0,0,0,0,0,0,0,0,0,0,0,0,0,0,0,0,0,0,0,0,0,0,0,0,0,0,0,0,0,0,0,0,0,0,0,0,0,0,0,0,0,0,0,0,0,0,-0.3532,-0.3531,0,-0.3386,-0.3384,-0.3383,-0.3318,-0.3319,-0.3319,-0.3319,-0.3166,-0.3162,-0.3158,0,0,0,0,0,0,0,0,0,0,0,0,0,-0.3755,-0.3752,-0.3533,-0.3531,-0.3529,-0.3386,-0.3384,-0.3382,-0.3318,-0.3319,-0.3319,-0.3319,-0.3168,-0.3163,-0.3158,0,0,0,0,0,0,0,0,0,0,0,0,0,-0.3639,-0.375,-0.3533,-0.348,-0.3474,-0.3387,-0.3384,-0.3382,-0.3318,-0.3319,-0.3319,-0.3319,-0.3169,-0.3163,-0.3157,-0.3111,0,0,-0.3137,-0.3135,0,0,0,0,0,0,0,0,-0.3645,-0.3631,-0.3489,-0.3483,-0.3476,-0.3371,-0.3407,-0.3291,-0.3318,-0.3377,-0.3319,-0.3319,-0.3234,-0.3222,-0.3194,-0.3104,-0.3097,-0.3137,-0.3133,-0.313,-0.3128,0,0,0,0,0,0,0,-0.3654,-0.3637,-0.3474,-0.3488,-0.3479,-0.3463,-0.3447,-0.3384,-0.3305,-0.3372,-0.3367,-0.3351,-0.323,-0.32,-0.319,-0.3095,-0.3137,-0.3131,-0.3127,-0.3125,-0.296,-0.296,0,0,0,0,0,0,-0.3671,-0.3644,-0.3479,-0.347,-0.3563,-0.3459,-0.3441,-0.3404,-0.3306,-0.3291,-0.3351,-0.3348,-0.3211,-0.3197,-0.3184,-0.3124,-0.313,-0.3124,-0.312,-0.2961,-0.296,-0.2959,0,0,0,0,0,0,-0.3676,-0.3657,-0.3485,-0.3555,-0.3532,-0.3455,-0.3414,-0.3401,-0.3371,-0.329,-0.3275,-0.3335,-0.3211,-0.3193,-0.313,-0.3118,-0.3121,-0.3115,-0.2961,-0.296,-0.296,-0.3003,0,0,0,0,0,0,-0.3682,-0.3659,-0.3641,-0.3556,-0.3529,-0.3434,-0.3414,-0.3398,-0.3361,-0.3356,-0.3271,-0.3257,-0.321,-0.314,-0.3124,-0.3109,-0.311,-0.2962,-0.2961,-0.296,-0.3003,-0.3004,-0.3006,0,0,0,0,0,-0.3691,-0.3658,-0.364,-0.3621,-0.3505,-0.3433,-0.3418,-0.3365,-0.336,-0.3341,-0.3289,-0.326,-0.3122,-0.3134,-0.3115,-0.3098,-0.2962,-0.2961,-0.296,-0.3002,-0.3004,-0.3005,0,0,0,0,0,0,-0.3742,-0.3646,-0.3625,-0.3564,-0.3507,-0.3422,-0.3397,-0.3368,-0.3311,-0.3309,-0.3245,-0.3227,-0.3169,-0.3127,-0.3142,-0.3049,-0.304,-0.3035,-0.3078,-0.3079,-0.3081,-0.3091,-0.3105,0,0,0,0,0,-0.3747,-0.3698,-0.3616,-0.357,-0.3543,-0.3475,-0.3442,-0.3406,-0.3344,-0.332,-0.3263,-0.3204,-0.3147,-0.3111,-0.3054,-0.2997,-0.2977,-0.2976,-0.2978,-0.2979,-0.2975,-0.2942,-0.2941,-0.2955,-0.2955,-0.2955,0,0,-0.3756,-0.3697,-0.3669,-0.3579,-0.3531,-0.348,-0.3455,-0.3403,-0.3364,-0.3311,-0.3248,-0.3205,-0.3135,-0.3074,-0.3045,-0.3038,-0.2967,-0.2978,-0.298,-0.2975,-0.2941,-0.294,-0.2938,-0.2955,-0.2955,-0.2955,0,0,-0.3745,-0.3696,-0.3653,-0.3606,-0.3534,-0.3489,-0.3479,-0.3398,-0.3368,-0.3304,-0.3263,-0.3217,-0.3121,-0.3072,-0.3035,-0.3009,-0.298,-0.2993,-0.2999,-0.2968,-0.2967,-0.2965,-0.2956,-0.2953,-0.2989,-0.2989,-0.2989,0,-0.3765,-0.3688,-0.3634,-0.3584,-0.3545,-0.3497,-0.3452,-0.3409,-0.3322,-0.3296,-0.329,-0.317,-0.3119,-0.3047,-0.3041,-0.3012,-0.2998,-0.3001,-0.2972,-0.297,-0.2967,-0.2958,-0.2954,-0.2991,-0.2991,-0.2991,-0.2991,0,-0.3715,-0.3663,-0.3636,-0.3555,-0.3513,-0.3467,-0.3405,-0.337,-0.3339,-0.3295,-0.3231,-0.3168,-0.3099,-0.3079,-0.3047,-0.3003,-0.3001,-0.2984,-0.2973,-0.2969,-0.2959,-0.2954,-0.2994,-0.2993,-0.2993,-0.2992,0,0,-0.3732,-0.3622,-0.3614,-0.3576,-0.3494,-0.3452,-0.3404,-0.3337,-0.3308,-0.325,-0.3207,-0.3128,-0.3112,-0.3071,-0.3033,-0.3006,-0.2989,-0.2992,-0.2989,-0.2993,-0.2936,-0.2949,-0.2945,-0.297,-0.2969,-0.2968,-0.2942,0,-0.371,-0.3621,-0.3572,-0.3503,-0.3454,-0.3408,-0.3365,-0.3311,-0.3269,-0.3221,-0.3174,-0.3119,-0.3103,-0.3077,-0.3048,-0.2997,-0.2977,-0.2999,-0.2929,-0.2927,-0.2947,-0.294,-0.2952,-0.293,-0.2938,-0.2937,-0.2936,0,-0.3672,-0.3616,-0.3543,-0.3468,-0.3445,-0.3408,-0.3343,-0.3298,-0.3235,-0.3206,-0.3161,-0.3124,-0.3071,-0.3066,-0.2991,-0.3007,-0.2976,-0.2947,-0.2945,-0.2936,-0.2931,-0.293,-0.2922,-0.2919,-0.2929,-0.293,-0.293,0,-0.3691,-0.3598,-0.3542,-0.3512,-0.3422,-0.3397,-0.3359,-0.3296,-0.326,-0.3203,-0.3178,-0.3116,-0.3082,-0.3034,-0.2982,-0.2983,-0.2913,-0.2903,-0.2887,-0.2889,-0.2873,-0.2875,-0.286,-0.2855,-0.2855,-0.2855,-0.2855,0,-0.3671,-0.3628,-0.355,-0.3515,-0.3466,-0.341,-0.3363,-0.3321,-0.3266,-0.3222,-0.3179,-0.3139,-0.3072,-0.3024,-0.2983,-0.2927,-0.2912,-0.2887,-0.2877,-0.2891,-0.2894,-0.2869,-0.2868,-0.2854,-0.2854,-0.2854,-0.2855,0,-0.3684,-0.363,-0.3566,-0.3487,-0.3466,-0.3434,-0.3366,-0.3331,-0.3288,-0.3233,-0.3217,-0.3149,-0.309,-0.3034,-0.2954,-0.2927,-0.2872,-0.2858,-0.2893,-0.2887,-0.2875,-0.2876,-0.2842,-0.2835,-0.2836,-0.2836,-0.2836,0,-0.3674,-0.364,-0.3559,-0.3527,-0.349,-0.3439,-0.3402,-0.3346,-0.3309,-0.3235,-0.3209,-0.3148,-0.3095,-0.3003,-0.2946,-0.2886,-0.287,-0.2862,-0.286,-0.2876,-0.2869,-0.2872,-0.2868,-0.2863,-0.2863,-0.2864,-0.2864,0,-0.3663,-0.3639,-0.3587,-0.3526,-0.3483,-0.3432,-0.338,-0.3356,-0.329,-0.3251,-0.3191,-0.3151,-0.3071,-0.301,-0.2943,-0.2903,-0.2872,-0.2865,-0.2858,-0.2872,-0.2894,-0.2881,-0.2896,-0.2866,-0.2866,-0.2866,-0.2865,-0.2865,-0.3664,-0.3632,-0.357,-0.3514,-0.3469,-0.3421,-0.3385,-0.3338,-0.3287,-0.3218,-0.3188,-0.3128,-0.3066,-0.2974,-0.2935,-0.2886,-0.2879,-0.2869,-0.2866,-0.2864,-0.2867,-0.2903,-0.2874,-0.2874,-0.2874,-0.2873,-0.2873,0,-0.365,-0.3609,-0.3558,-0.3487,-0.3443,-0.3419,-0.3361,-0.3325,-0.3273,-0.3219,-0.3169,-0.31,-0.3041,-0.2981,-0.2919,-0.2892,-0.2876,-0.2877,-0.2878,-0.2869,-0.2877,-0.2889,-0.2891,-0.2891,-0.2891,-0.2891,-0.2891,-0.2891,-0.3638,-0.3583,-0.3551,-0.3473,-0.3431,-0.3372,-0.3341,-0.3297,-0.3253,-0.3179,-0.313,-0.3092,-0.3035,-0.2969,-0.2914,-0.2897,-0.2876,-0.2881,-0.2861,-0.287,-0.2868,-0.2867,-0.2878,-0.2877,-0.2877,-0.2856,-0.2856,-0.2856]},{"header":{"parameterUnit":"m.s-1","parameterCategory":1,"la1":30.2991,"la2":30.254,"lo1":-89.0895,"lo2":-89.0444,"dy":0.0017,"dx":0.0017,"nx":28,"ny":28,"refTime":"2025-05-22T09:00:00:Z","depth":0,"parameterNumber":3,"parameterNumberName":"V-component_of_WINDS"},"data":[0,0,0,0,0,0,0,0,0,0,0,0,0,0,0,0,0,0,0,0,0,0,0,0,0,0,0,0,0,0,0,0,0,0,0,0,0,0,0,0,0,0,0,0,0,0,0,0,0,0,0,0,0,0,0,0,0,0,3.7591,3.7591,0,3.7534,3.7534,3.7533,3.7534,3.7535,3.7536,3.7536,3.7469,3.7467,3.7464,0,0,0,0,0,0,0,0,0,0,0,0,0,3.7693,3.7691,3.7591,3.7591,3.759,3.7535,3.7534,3.7533,3.7534,3.7535,3.7536,3.7537,3.747,3.7467,3.7464,0,0,0,0,0,0,0,0,0,0,0,0,0,3.7644,3.7691,3.7591,3.7584,3.7583,3.7535,3.7534,3.7533,3.7534,3.7535,3.7536,3.7537,3.7471,3.7467,3.7464,3.7417,0,0,3.7452,3.745,0,0,0,0,0,0,0,0,3.7647,3.764,3.7586,3.7584,3.7583,3.7543,3.7545,3.7493,3.7533,3.7552,3.7536,3.7538,3.7492,3.7487,3.7473,3.7414,3.7411,3.7452,3.745,3.7448,3.7447,0,0,0,0,0,0,0,3.765,3.7642,3.7568,3.7585,3.7583,3.7581,3.7575,3.7535,3.7516,3.755,3.755,3.7544,3.7492,3.7477,3.7472,3.741,3.7452,3.7449,3.7446,3.7445,3.7309,3.7308,0,0,0,0,0,0,3.7656,3.7645,3.757,3.7567,3.7619,3.7578,3.7572,3.7554,3.7516,3.7512,3.7543,3.7544,3.7483,3.7476,3.7469,3.7412,3.7448,3.7444,3.7442,3.731,3.7309,3.7307,0,0,0,0,0,0,3.7658,3.7649,3.7573,3.7606,3.7596,3.7575,3.7555,3.7552,3.7538,3.7511,3.7507,3.7532,3.7483,3.7475,3.743,3.741,3.7443,3.7439,3.7312,3.731,3.7308,3.7297,0,0,0,0,0,0,3.7661,3.765,3.7634,3.7606,3.7594,3.7537,3.7554,3.7551,3.7532,3.7533,3.75,3.7495,3.7484,3.7436,3.7427,3.7405,3.7436,3.7313,3.7311,3.7308,3.7299,3.7295,3.7291,0,0,0,0,0,3.7665,3.7631,3.7633,3.7624,3.7574,3.7536,3.7529,3.7519,3.7531,3.7513,3.7496,3.7496,3.7414,3.7432,3.7421,3.7398,3.7315,3.7312,3.7309,3.7301,3.7296,3.7291,0,0,0,0,0,0,3.7653,3.7627,3.7629,3.7586,3.7563,3.7536,3.7513,3.7514,3.7485,3.7487,3.7474,3.7466,3.7422,3.7405,3.7426,3.7351,3.7365,3.736,3.7363,3.7358,3.7354,3.7358,3.7433,0,0,0,0,0,3.7647,3.7621,3.7598,3.7561,3.7551,3.7534,3.7517,3.7512,3.7487,3.7477,3.7456,3.743,3.7398,3.7377,3.7346,3.7297,3.7289,3.7276,3.7272,3.7269,3.7264,3.7237,3.723,3.7297,3.7297,3.7297,0,0,3.763,3.7613,3.7597,3.7559,3.7541,3.7512,3.7526,3.7494,3.7472,3.7471,3.7429,3.7413,3.7382,3.7336,3.7314,3.7321,3.7244,3.7265,3.7263,3.7259,3.7233,3.7227,3.7221,3.7295,3.7295,3.7296,0,0,3.7587,3.7572,3.754,3.7523,3.7497,3.7487,3.7479,3.7452,3.7443,3.7401,3.74,3.7372,3.7317,3.7296,3.7278,3.7229,3.7227,3.7219,3.7197,3.7171,3.7166,3.7161,3.7143,3.7137,3.7214,3.7214,3.7214,0,3.7569,3.7529,3.7523,3.7492,3.7475,3.7476,3.7443,3.7426,3.739,3.7377,3.7386,3.7319,3.7298,3.7246,3.7235,3.722,3.721,3.7222,3.7168,3.7163,3.7158,3.7141,3.7134,3.7213,3.7213,3.7213,3.7213,0,3.7508,3.748,3.7457,3.7427,3.7407,3.7375,3.7362,3.7342,3.7339,3.7327,3.7285,3.7261,3.7225,3.7213,3.7208,3.716,3.7165,3.7171,3.7185,3.7151,3.7134,3.7128,3.7212,3.7212,3.7212,3.7213,0,0,3.7454,3.7423,3.7414,3.7401,3.7373,3.735,3.7317,3.7286,3.727,3.7245,3.7216,3.7171,3.7177,3.7157,3.7149,3.7126,3.7088,3.7135,3.7134,3.7126,3.7034,3.703,3.7022,3.7088,3.7087,3.7086,3.7037,0,3.7407,3.7354,3.7348,3.7299,3.7272,3.7273,3.7245,3.7224,3.7212,3.7186,3.7171,3.714,3.715,3.7138,3.7115,3.7098,3.7069,3.7101,3.7059,3.7058,3.7067,3.7014,3.7009,3.6963,3.703,3.7029,3.7028,0,3.7345,3.7323,3.7272,3.7249,3.7238,3.7213,3.7184,3.716,3.7135,3.7128,3.7107,3.7103,3.7068,3.7085,3.7035,3.7057,3.7039,3.7028,3.7026,3.7021,3.704,3.7006,3.6949,3.6942,3.7018,3.7019,3.7019,0,3.7311,3.7267,3.7232,3.722,3.7192,3.7175,3.7162,3.7139,3.7121,3.7095,3.7083,3.7052,3.7035,3.701,3.6997,3.7011,3.6948,3.6964,3.6939,3.694,3.6925,3.6926,3.6863,3.6915,3.6915,3.6915,3.6915,0,3.7259,3.7227,3.7216,3.7194,3.7158,3.7152,3.7116,3.7103,3.7083,3.7057,3.7055,3.703,3.7015,3.6987,3.6977,3.6937,3.6929,3.6921,3.6918,3.692,3.6921,3.6908,3.691,3.6913,3.6914,3.6914,3.6914,0,3.7213,3.7205,3.7166,3.7145,3.7138,3.7113,3.7094,3.7071,3.706,3.7027,3.7019,3.7001,3.6968,3.6954,3.6912,3.6905,3.6859,3.6859,3.6869,3.6868,3.6844,3.6846,3.6769,3.6759,3.6818,3.6818,3.6817,0,3.718,3.7157,3.7134,3.7118,3.7106,3.708,3.7062,3.7055,3.7036,3.7007,3.6988,3.6956,3.693,3.6877,3.6858,3.6827,3.6825,3.6801,3.682,3.6824,3.6824,3.6826,3.6823,3.6797,3.6796,3.6796,3.6795,0,3.7123,3.7121,3.7097,3.7072,3.7053,3.7032,3.7011,3.6998,3.6986,3.6965,3.6934,3.6914,3.6873,3.6841,3.6809,3.6792,3.6791,3.679,3.6782,3.6784,3.6791,3.6787,3.6858,3.6791,3.6792,3.6792,3.6792,3.6792,3.7082,3.7062,3.7044,3.7018,3.7002,3.6984,3.6962,3.695,3.6925,3.6893,3.6889,3.6855,3.6831,3.6788,3.6771,3.6743,3.6748,3.6738,3.6735,3.6732,3.6731,3.6796,3.6737,3.6737,3.6737,3.6737,3.6737,0,3.7025,3.7014,3.699,3.6964,3.6943,3.6947,3.6925,3.6907,3.6878,3.6857,3.6833,3.6796,3.6765,3.6746,3.6714,3.6695,3.6693,3.6687,3.6687,3.6684,3.6728,3.6737,3.6688,3.6688,3.6688,3.6688,3.6688,3.6688,3.6992,3.6958,3.6954,3.6911,3.69,3.6869,3.6856,3.6838,3.6822,3.6782,3.6758,3.6747,3.6726,3.6693,3.6664,3.6659,3.6647,3.664,3.6634,3.6675,3.668,3.6685,3.6694,3.6637,3.6637,3.6593,3.6593,3.6592]}]]